Location: Joplin, MO
(37.0842°N, 94.5133°W)
Time: 10:36:45
(UTC+02:00)

Vanguard 3 - Pass Details

Date: 06 April 2023
Orbit: 507 x 3246 km, 33.4° (Epoch: 01 June)

Event Time Altitude Azimuth Distance (km) Brightness Sun altitude
Rises 12:41:36 0° 280° (W) 6,514 - -15.3°
Exits shadow 12:45:16 - 278° (W) 5,800 10.9 -14.6°
Reaches altitude 10° 12:45:36 10° 278° (W) 5,738 10.9 -14.6°
Maximum altitude 13:04:07 62° 204° (SSW) 3,500 10.1 -11.1°
Drops below altitude 10° 13:21:49 10° 129° (SE) 5,505 11.9 -7.7°
Sets 13:25:35 0° 125° (SE) 6,247 12.3 -6.9°
